This is the latest recevied weather packets stored in our database for station/object DH1NAI-6. If no packets are shown the sender has not sent any weather packets the latest 10 day(s).
| Time | Temp. | Humidity | Pressure | Rain* | Wind** | Luminosity | Snow |
|---|---|---|---|---|---|---|---|
| 1787441896 | 5.56° C | 99% | 1019.4 hPa | 0 mm | - | 0 W/m² | - |
| 1787441287 | 5.56° C | 99% | 1019.2 hPa | 0 mm | - | 0 W/m² | - |
| 1787440680 | 5.56° C | 99% | 1019.4 hPa | 0 mm | - | 0 W/m² | - |
| 1787440071 | 5.56° C | 99% | 1019.3 hPa | 0 mm | - | 0 W/m² | - |
| 1787439464 | 6.11° C | 99% | 1019.6 hPa | 0 mm | - | 0 W/m² | - |
| 1787438852 | 5.56° C | 99% | 1019.2 hPa | 0 mm | - | 0 W/m² | - |
| 1787438248 | 6.11° C | 99% | 1019.2 hPa | 0 mm | - | 0 W/m² | - |
| 1787437639 | 6.11° C | 99% | 1019.3 hPa | 0 mm | - | 0 W/m² | - |
| 1787437015 | 6.67° C | 99% | 1019.1 hPa | 0 mm | - | 0 W/m² | - |
| 1787436392 | 6.67° C | 99% | 1019.2 hPa | 0 mm | - | 0 W/m² | - |
| 1787435783 | 6.11° C | 99% | 1019.1 hPa | 0 mm | - | 0 W/m² | - |
| 1787435159 | 6.67° C | 99% | 1018.9 hPa | 0 mm | - | 0 W/m² | - |
| 1787434535 | 6.67° C | 99% | 1019 hPa | 0 mm | - | 0 W/m² | - |
| 1787433927 | 6.67° C | 99% | 1018.9 hPa | 0 mm | - | 0 W/m² | - |
| 1787433303 | 6.67° C | 99% | 1018.8 hPa | 0 mm | - | 0 W/m² | - |
| 1787432695 | 6.67° C | 99% | 1018.7 hPa | 0 mm | - | 0 W/m² | - |
| 1787432071 | 7.22° C | 99% | 1018.7 hPa | 1.02 mm | - | 0 W/m² | - |
| 1787431447 | 7.22° C | 99% | 1018.9 hPa | 1.02 mm | - | 0 W/m² | - |
| 1787430839 | 7.78° C | 99% | 1018.6 hPa | 1.02 mm | - | 0 W/m² | - |
| 1787430231 | 7.78° C | 99% | 1018.4 hPa | 1.02 mm | - | 0 W/m² | - |
| 1787429612 | 8.33° C | 99% | 1018.5 hPa | 0 mm | - | 0 W/m² | - |
| 1787429012 | 8.33° C | 99% | 1018.5 hPa | 0 mm | - | 0 W/m² | - |
| 1787428407 | 8.33° C | 99% | 1018.3 hPa | 0 mm | - | 0 W/m² | - |
| 1787427799 | 8.89° C | 99% | 1018.5 hPa | 0 mm | - | 0 W/m² | - |
| 1787427191 | 9.44° C | 99% | 1018.4 hPa | 0 mm | - | 0 W/m² | - |
* Rain latest hour (hover to see other rain measurements)
** Current wind speed in m/s (hover to see current wind gust speed)